AXM8011 WMKK-WMKK

Flight info

Callsign AXM8011
Flight time 0h 17m
Altitude 20000
Route ATIMU1E/32L ATIMU Y506 TEPUS DCT GORVU
Aircraft A321/M-SDE3FGHIRWY/LB1

Departure

Time 2026-05-04 13:48
Airport Kuala Lumpur International Airport (WMKK)

Arrival

Time 2026-05-04 14:05
Airport Kuala Lumpur International Airport (WMKK)
Time Latitude Longitude Altitude Speed Heading
2026-05-04 13:25 3.14632 101.38602 16985 ft 357 kts 320°
2026-05-04 13:25 3.16589 101.37102 16949 ft 355 kts 320°
2026-05-04 13:25 3.18543 101.35603 16931 ft 354 kts 320°
2026-05-04 13:26 3.20483 101.34108 16916 ft 354 kts 319°
2026-05-04 13:26 3.22452 101.32580 16899 ft 354 kts 319°
2026-05-04 13:26 3.24240 101.30910 16817 ft 348 kts 304°
2026-05-04 13:26 3.25342 101.28818 16437 ft 339 kts 284°
2026-05-04 13:27 3.25599 101.26495 15897 ft 336 kts 264°
2026-05-04 13:27 3.24962 101.24262 15396 ft 335 kts 243°
2026-05-04 13:27 3.23554 101.22456 14920 ft 337 kts 222°
2026-05-04 13:27 3.21512 101.21263 14370 ft 343 kts 201°
2026-05-04 13:28 3.19214 101.20746 13954 ft 342 kts 192°
2026-05-04 13:28 3.16838 101.20422 13544 ft 339 kts 190°
2026-05-04 13:28 3.14513 101.20145 13104 ft 337 kts 190°
2026-05-04 13:28 3.12204 101.19933 12931 ft 337 kts 182°
2026-05-04 13:29 3.09907 101.20388 12941 ft 344 kts 160°
2026-05-04 13:29 3.07767 101.21502 12973 ft 344 kts 152°
2026-05-04 13:29 3.05737 101.22756 13000 ft 343 kts 150°
2026-05-04 13:29 3.03728 101.24037 13030 ft 343 kts 150°
2026-05-04 13:30 3.01731 101.25317 13061 ft 343 kts 149°
2026-05-04 13:30 2.99711 101.26610 13085 ft 342 kts 149°
2026-05-04 13:30 2.97718 101.27882 13102 ft 342 kts 149°
2026-05-04 13:30 2.95706 101.29151 13112 ft 340 kts 153°
2026-05-04 13:31 2.93519 101.29964 13106 ft 334 kts 174°
2026-05-04 13:31 2.91217 101.29970 13108 ft 329 kts 193°
2026-05-04 13:31 2.89086 101.29227 13121 ft 325 kts 206°
2026-05-04 13:31 2.87039 101.28249 13120 ft 325 kts 208°
2026-05-04 13:32 2.85010 101.27258 13123 ft 329 kts 208°
2026-05-04 13:32 2.82935 101.26238 13084 ft 333 kts 208°
2026-05-04 13:32 2.80843 101.25279 13020 ft 327 kts 204°
2026-05-04 13:32 2.78919 101.24211 12956 ft 310 kts 221°
2026-05-04 13:33 2.77584 101.22620 12919 ft 291 kts 245°
2026-05-04 13:33 2.77108 101.20740 12899 ft 273 kts 271°
2026-05-04 13:33 2.77521 101.18954 12888 ft 260 kts 298°
2026-05-04 13:33 2.78712 101.17612 12888 ft 263 kts 326°
2026-05-04 13:34 2.80430 101.16977 12887 ft 269 kts 353°
2026-05-04 13:34 2.82306 101.17147 12894 ft 273 kts 13°
2026-05-04 13:34 2.84017 101.18004 12879 ft 294 kts 43°
2026-05-04 13:34 2.85168 101.19824 12889 ft 326 kts 73°
2026-05-04 13:35 2.85276 101.22088 13033 ft 334 kts 104°
2026-05-04 13:35 2.82614 101.25369 12654 ft 300 kts 165°
2026-05-04 13:35 2.80612 101.25526 12465 ft 284 kts 190°
2026-05-04 13:36 2.78748 101.25015 12290 ft 272 kts 208°
2026-05-04 13:36 2.77226 101.23978 12091 ft 261 kts 228°
2026-05-04 13:36 2.76198 101.22536 11783 ft 255 kts 244°
2026-05-04 13:36 2.75382 101.20940 11435 ft 255 kts 244°
2026-05-04 13:37 2.74619 101.19361 11079 ft 254 kts 253°
2026-05-04 13:37 2.74421 101.17619 10699 ft 251 kts 279°
2026-05-04 13:37 2.74813 101.15939 10385 ft 249 kts 285°
2026-05-04 13:37 2.75136 101.14830 10156 ft 249 kts 290°
2026-05-04 13:38 2.76526 101.13026 9648 ft 250 kts 327°
2026-05-04 13:38 2.78144 101.12421 9306 ft 251 kts 353°
2026-05-04 13:38 2.79863 101.12577 8957 ft 254 kts 18°
2026-05-04 13:38 2.81373 101.13490 8607 ft 256 kts 45°
2026-05-04 13:39 2.82081 101.14443 8376 ft 258 kts 63°
2026-05-04 13:39 2.82485 101.16773 7918 ft 259 kts 99°
2026-05-04 13:39 2.82071 101.18517 7622 ft 257 kts 105°
2026-05-04 13:39 2.81571 101.20239 7301 ft 256 kts 105°
2026-05-04 13:40 2.81082 101.21942 6988 ft 254 kts 105°
2026-05-04 13:40 2.80613 101.23634 6681 ft 253 kts 104°
2026-05-04 13:40 2.80079 101.25326 6354 ft 252 kts 117°
2026-05-04 13:40 2.78957 101.26617 6056 ft 249 kts 148°
2026-05-04 13:41 2.77351 101.27238 6023 ft 249 kts 174°
2026-05-04 13:41 2.75644 101.27095 6016 ft 247 kts 201°
2026-05-04 13:41 2.74180 101.26238 6012 ft 245 kts 226°
2026-05-04 13:42 2.72975 101.23187 6010 ft 240 kts 277°
2026-05-04 13:42 2.73315 101.21548 6014 ft 240 kts 286°
2026-05-04 13:42 2.73771 101.19935 6010 ft 240 kts 287°
2026-05-04 13:42 2.74228 101.18321 6009 ft 240 kts 286°
2026-05-04 13:43 2.74671 101.16717 6010 ft 240 kts 286°
2026-05-04 13:43 2.75110 101.15113 6010 ft 240 kts 289°
2026-05-04 13:43 2.75903 101.13663 6008 ft 239 kts 314°
2026-05-04 13:43 2.77264 101.12698 6014 ft 239 kts 339°
2026-05-04 13:44 2.78894 101.12415 6017 ft 241 kts
2026-05-04 13:44 2.80497 101.12859 6018 ft 243 kts 28°
2026-05-04 13:44 2.81769 101.13958 6019 ft 245 kts 54°
2026-05-04 13:44 2.82443 101.15539 6012 ft 248 kts 83°
2026-05-04 13:45 2.82257 101.17233 6024 ft 250 kts 108°
2026-05-04 13:45 2.81609 101.18863 6024 ft 250 kts 114°
2026-05-04 13:45 2.80876 101.20440 6022 ft 250 kts 115°
2026-05-04 13:45 2.80121 101.22018 6020 ft 250 kts 115°
2026-05-04 13:46 2.79370 101.23577 6019 ft 250 kts 115°
2026-05-04 13:46 2.78619 101.25137 6018 ft 250 kts 115°
2026-05-04 13:46 2.77858 101.26717 6016 ft 250 kts 115°
2026-05-04 13:46 2.77102 101.28285 6014 ft 250 kts 115°
2026-05-04 13:47 2.76345 101.29855 6013 ft 250 kts 115°
2026-05-04 13:47 2.75579 101.31444 6011 ft 250 kts 115°
2026-05-04 13:47 2.74827 101.33004 6009 ft 250 kts 115°
2026-05-04 13:47 2.74073 101.34567 6007 ft 250 kts 115°
2026-05-04 13:48 2.73311 101.36148 6005 ft 250 kts 115°
2026-05-04 13:48 2.72561 101.37704 6004 ft 250 kts 115°
2026-05-04 13:48 2.71807 101.39267 6002 ft 250 kts 115°
2026-05-04 13:48 2.71047 101.40843 6001 ft 250 kts 115°
2026-05-04 13:49 2.70288 101.42417 6000 ft 250 kts 115°
2026-05-04 13:49 2.69529 101.43991 6000 ft 250 kts 115°
2026-05-04 13:49 2.68781 101.45541 5986 ft 248 kts 115°
2026-05-04 13:49 2.68025 101.47109 5861 ft 249 kts 115°
2026-05-04 13:50 2.67275 101.48663 5712 ft 249 kts 115°
2026-05-04 13:50 2.66527 101.50211 5559 ft 243 kts 115°
2026-05-04 13:50 2.65791 101.51735 5409 ft 242 kts 115°
2026-05-04 13:50 2.65054 101.53258 5258 ft 241 kts 115°
2026-05-04 13:51 2.64326 101.54763 5109 ft 241 kts 115°
2026-05-04 13:51 2.63598 101.56269 4959 ft 240 kts 115°
2026-05-04 13:51 2.62863 101.57788 4807 ft 239 kts 115°
2026-05-04 13:51 2.62137 101.59287 4657 ft 239 kts 115°
2026-05-04 13:52 2.60692 101.62274 4356 ft 237 kts 115°
2026-05-04 13:52 2.59975 101.63756 4207 ft 237 kts 115°
2026-05-04 13:52 2.59255 101.65243 4056 ft 236 kts 115°
2026-05-04 13:53 2.58541 101.66730 3905 ft 235 kts 115°
2026-05-04 13:53 2.57836 101.68204 3755 ft 235 kts 115°
2026-05-04 13:53 2.57136 101.69670 3606 ft 234 kts 115°
2026-05-04 13:54 2.55726 101.72623 3506 ft 233 kts 115°
2026-05-04 13:54 2.55028 101.74086 3502 ft 234 kts 116°
2026-05-04 13:54 2.52835 101.76453 3500 ft 234 kts 143°
2026-05-04 13:55 2.51517 101.77404 3499 ft 234 kts 144°
2026-05-04 13:55 2.48854 101.79272 3499 ft 234 kts 145°
2026-05-04 13:55 2.47507 101.80213 3499 ft 234 kts 145°
2026-05-04 13:56 2.46183 101.81138 3499 ft 234 kts 145°
2026-05-04 13:56 2.44845 101.82072 3500 ft 234 kts 145°
2026-05-04 13:56 2.42710 101.84422 3491 ft 233 kts 102°
2026-05-04 13:57 2.42738 101.85993 3497 ft 226 kts 71°
2026-05-04 13:57 2.43335 101.87423 3501 ft 217 kts 61°
2026-05-04 13:58 2.47027 101.88461 3520 ft 209 kts 326°
2026-05-04 13:58 2.49349 101.86703 3513 ft 209 kts 323°
2026-05-04 13:58 2.50512 101.85834 3509 ft 209 kts 324°
2026-05-04 13:59 2.51709 101.84977 3506 ft 209 kts 325°
2026-05-04 13:59 2.52892 101.84157 3505 ft 209 kts 326°
2026-05-04 13:59 2.55142 101.82636 3572 ft 174 kts 326°
2026-05-04 14:00 2.56105 101.81994 3535 ft 161 kts 326°
2026-05-04 14:00 2.57954 101.80763 3170 ft 160 kts 326°
2026-05-04 14:00 2.58881 101.80145 2983 ft 159 kts 326°
2026-05-04 14:01 2.59794 101.79536 2788 ft 156 kts 326°
2026-05-04 14:01 2.60677 101.78944 2562 ft 148 kts 326°
2026-05-04 14:01 2.62368 101.77816 2193 ft 147 kts 326°
2026-05-04 14:02 2.63226 101.77241 2055 ft 151 kts 327°
2026-05-04 14:02 2.64104 101.76670 1908 ft 152 kts 327°
2026-05-04 14:02 2.64987 101.76078 1703 ft 153 kts 326°
2026-05-04 14:02 2.65870 101.75474 1492 ft 151 kts 325°
2026-05-04 14:03 2.66726 101.74889 1232 ft 148 kts 326°
2026-05-04 14:03 2.67564 101.74329 990 ft 145 kts 327°
2026-05-04 14:03 2.68399 101.73772 777 ft 144 kts 326°
2026-05-04 14:03 2.69236 101.73204 617 ft 146 kts 326°
2026-05-04 14:04 2.70934 101.72069 211 ft 145 kts 326°
2026-05-04 14:04 2.71756 101.71524 75 ft 131 kts 326°
2026-05-04 14:04 2.72315 101.71148 75 ft 59 kts 326°
2026-05-04 14:05 2.72770 101.70843 75 ft 26 kts 326°
2026-05-04 14:05 2.72906 101.70751 75 ft 19 kts 326°
2026-05-04 14:05 2.73016 101.70708 75 ft 13 kts 347°
2026-05-04 14:06 2.73109 101.70689 75 ft 12 kts 352°
2026-05-04 14:06 2.73157 101.70683 75 ft 3 kts 352°
2026-05-04 14:06 2.73180 101.70679 75 ft 3 kts 352°
2026-05-04 14:06 2.73211 101.70676 75 ft 5 kts 355°
2026-05-04 14:07 2.73254 101.70673 75 ft 6 kts 359°
2026-05-04 14:07 2.73306 101.70674 74 ft 8 kts
2026-05-04 14:07 2.73360 101.70671 74 ft 5 kts 342°
2026-05-04 14:07 2.73377 101.70663 75 ft 0 kts 327°
2026-05-04 14:10 2.73380 101.70660 75 ft 1 kts 326°
2026-05-04 14:10 2.73397 101.70649 75 ft 4 kts 326°
2026-05-04 14:11 2.73438 101.70639 75 ft 7 kts 14°
2026-05-04 14:11 2.73530 101.70760 75 ft 13 kts 56°
2026-05-04 14:11 2.73582 101.70837 75 ft 13 kts 56°
2026-05-04 14:12 2.73634 101.70915 75 ft 13 kts 56°
2026-05-04 14:12 2.73688 101.70992 75 ft 13 kts 56°
2026-05-04 14:12 2.73797 101.71154 75 ft 14 kts 56°
2026-05-04 14:13 2.73852 101.71236 75 ft 14 kts 56°
2026-05-04 14:13 2.73907 101.71318 75 ft 14 kts 56°
2026-05-04 14:13 2.73964 101.71402 75 ft 14 kts 56°
2026-05-04 14:13 2.74015 101.71477 74 ft 10 kts 56°
2026-05-04 14:14 2.74032 101.71523 75 ft 6 kts 111°
2026-05-04 14:14 2.73949 101.71577 74 ft 4 kts 146°
2026-05-04 14:14 2.73935 101.71586 74 ft 1 kts 146°
2026-05-04 14:15 2.73934 101.71587 74 ft 0 kts 146°